Flag for Nicaragua Weather past 2 weeks in Managua, Nicaragua

Now
75 °F

Passing clouds.


Feels Like: 75 °F
Forecast: 75 / 92 °F
Wind: 5 mph from East

Location: Managua A. C. Sandino

Current Time: Aug 22, 2014 at 2:15:34 AM

Latest Report: Aug 22, 2014 at 1:00 AM


Visibility: N/A

Pressure: 29.89 "Hg

Humidity: 89%

Dew point: 72 °F

Location of ManaguaLocation

Historic Weather in Managua — Graph

°F

Managua temperature yesterday

Maximum temperature yesterday: 90 °F (at 12:00 PM)
Minimum temperature yesterday: 73 °F (at 12:00 AM)
Average temperature yesterday: 80 °F

Past Weeks' High & Low Weather Summary

 TemperatureHumidityPressure
High95 °F (Aug 11, 4:00 PM)100% (Aug 7, 11:00 PM)29.95 "Hg (Aug 7, 11:00 PM)
Low72 °F (Aug 20, 7:00 PM)49% (Aug 14, 2:00 PM)29.74 "Hg (Aug 11, 4:00 PM)
Average81 °F79%29.85 "Hg
* Reported Aug 7 3:00 AM — Aug 22 1:00 AM, Managua, Weather by CustomWeather, © 2014

Note: Actual official high and low records may vary slightly from our data, if they occured in-between our weather recording intervals... More about our weather records

Advertising

Managua weather history for previous 24 hours

 ConditionsComfort  
Time TempWeatherWind HumidityBarometerVisibility
1:00 AM
Aug 22
75 °FPassing clouds.5 mph89%29.89 "HgN/A
12:00 AM75 °FPassing clouds.5 mph89%29.92 "HgN/A
11:00 PM
Aug 21
77 °FPassing clouds.5 mph83%29.92 "HgN/A
10:00 PM77 °FPassing clouds.7 mph89%29.92 "HgN/A
9:00 PM77 °FPassing clouds.5 mph83%29.92 "HgN/A
8:00 PM79 °FPassing clouds.5 mph84%29.89 "HgN/A
7:00 PM79 °FPassing clouds.7 mph84%29.86 "HgN/A
6:00 PM81 °FScattered clouds.5 mph79%29.86 "HgN/A
5:00 PM82 °FScattered clouds.9 mph74%29.83 "HgN/A
4:00 PM84 °FScattered clouds.12 mph74%29.83 "HgN/A
3:21 PM82 °FScattered clouds.1 mph79%29.83 "HgN/A
2:00 PM79 °FScattered clouds.14 mph84%29.86 "HgN/A
1:00 PM77 °FRain. Scattered clouds.12 mph89%29.89 "Hg6 mi
12:00 PM90 °FScattered clouds.14 mph55%29.89 "Hg6 mi
11:00 AM88 °FScattered clouds.14 mph62%29.92 "Hg6 mi
10:00 AM88 °FScattered clouds.12 mph62%29.92 "Hg6 mi
9:00 AM84 °FScattered clouds.9 mph70%29.92 "Hg6 mi
8:00 AM82 °FScattered clouds.N/A74%29.92 "Hg6 mi
7:00 AM79 °FScattered clouds.9 mph84%29.89 "Hg6 mi
6:00 AM77 °FScattered clouds.7 mph83%29.86 "Hg6 mi
5:00 AM77 °FPassing clouds.7 mph83%29.83 "Hg6 mi
4:00 AM77 °FPassing clouds.7 mph83%29.83 "Hg6 mi
3:00 AM77 °FPassing clouds.7 mph83%29.83 "Hg6 mi
Weather by CustomWeather, © 2014

See weather overviewHow to use our weather pages